Weather History for Vernal, UT

Change the Weather History Date:

Wednesday, November 21, 2012

  Actual Average Record
Temperature  
Mean Temperature 41 °F 31 °F  
Max Temperature 55 °F 41 °F 57 °F (1932)
Min Temperature 26 °F 21 °F -16 °F (1953)
Degree Days  
Heating Degree Days 24 34  
Month to date heating degree days 517 598  
Since 1 July heating degree days 1085 1302  
Cooling Degree Days 0 0  
Month to date cooling degree days 0 0  
Year to date cooling degree days 810 511  
Moisture  
Dew Point 27 °F    
Average Humidity 60    
Maximum Humidity 85    
Minimum Humidity 35    
Precipitation  
Precipitation 0.00 in 0.02 in 0.48 in (1983)
Month to date precipitation 0.16 0.46  
Year to date precipitation 3.99 8.54  
Sea Level Pressure  
Sea Level Pressure 30.11 in    
Wind  
Wind Speed 3 mph (West)    
Max Wind Speed 9 mph    
Max Gust Speed 12 mph    
Visibility 10 miles    
Events      
T = Trace of Precipitation, MM = Missing Value Source: NWS Daily Summary

Daily Weather History Graph

Daily Weather History Graph

Search for Another Location

Airport:

Trip Planner

Search our weather history database for the weather conditions in past years. The results will help you decide how hot, cold, wet, or windy it might be!

Date:

Astronomy

Nov. 21, 2012 Rise Set
Actual Time 7:11 AM MST 4:56 PM MST
Civil Twilight 6:42 AM MST 5:25 PM MST
Nautical Twilight 6:08 AM MST 5:59 PM MST
Astronomical Twilight 5:36 AM MST 6:31 PM MST
Moon 1:15 PM MST (11/21) 12:33 AM MST (11/21)
Length of Visible Light 10h 43m
Length of Day
9h 44m
Waxing Gibbous, 62% of the Moon is Illuminated
Nov 21
Waxing Gibbous
Nov 28
Full
Dec 6
Last Quarter
Dec 13
New
Dec 19
First Quarter

Hourly Weather History & Observations

Time (MST) Temp. Windchill Dew Point Humidity Pressure Visibility Wind Dir Wind Speed Gust Speed Precip Events Conditions
12:53 AM 30.9 °F - 26.1 °F 82% 30.18 in 10.0 mi Calm Calm - N/A   Clear
1:53 AM 28.9 °F - 25.0 °F 85% 30.18 in 10.0 mi Calm Calm - N/A   Clear
2:53 AM 28.0 °F 22.8 °F 24.1 °F 85% 30.16 in 10.0 mi WNW 4.6 mph - N/A   Clear
3:53 AM 30.0 °F 25.2 °F 25.0 °F 82% 30.15 in 10.0 mi West 4.6 mph - N/A   Clear
4:53 AM 30.9 °F 25.2 °F 26.1 °F 82% 30.14 in 10.0 mi West 5.8 mph - N/A   Clear
5:53 AM 28.9 °F - 24.1 °F 82% 30.17 in 10.0 mi Calm Calm - N/A   Clear
6:53 AM 28.0 °F 22.8 °F 24.1 °F 85% 30.19 in 10.0 mi WNW 4.6 mph - N/A   Clear
7:53 AM 28.0 °F 22.8 °F 25.0 °F 88% 30.21 in 10.0 mi WNW 4.6 mph - N/A   Clear
8:53 AM 35.1 °F - 28.9 °F 78% 30.19 in 10.0 mi Calm Calm - N/A   Clear
9:53 AM 39.9 °F 37.8 °F 30.9 °F 70% 30.17 in 10.0 mi SE 3.5 mph - N/A   Clear
10:53 AM 44.1 °F - 30.9 °F 60% 30.15 in 10.0 mi Calm Calm - N/A   Clear
11:53 AM 46.9 °F - 30.9 °F 54% 30.11 in 10.0 mi Calm Calm - N/A   Clear
12:53 PM 51.1 °F - 30.0 °F 44% 30.06 in 10.0 mi ESE 5.8 mph - N/A   Clear
1:53 PM 51.1 °F - 28.0 °F 41% 30.05 in 10.0 mi Calm Calm - N/A   Clear
2:53 PM 54.0 °F - 27.0 °F 35% 30.02 in 10.0 mi Calm Calm - N/A   Clear
3:53 PM 52.0 °F - 28.0 °F 40% 30.02 in 10.0 mi East 3.5 mph - N/A   Clear
4:53 PM 50.0 °F - 27.0 °F 41% 30.01 in 10.0 mi Calm Calm - N/A   Clear
5:53 PM 42.1 °F 38.4 °F 28.0 °F 58% 30.05 in 10.0 mi West 5.8 mph - N/A   Clear
6:53 PM 39.0 °F 34.8 °F 28.0 °F 65% 30.07 in 10.0 mi West 5.8 mph - N/A   Clear
7:53 PM 37.9 °F 33.5 °F 27.0 °F 65% 30.09 in 10.0 mi WNW 5.8 mph - N/A   Clear
8:53 PM 36.0 °F 31.1 °F 26.1 °F 67% 30.06 in 10.0 mi West 5.8 mph - N/A   Clear
9:53 PM 35.1 °F 29.3 °F 26.1 °F 70% 30.06 in 10.0 mi West 6.9 mph - N/A   Clear
10:53 PM 35.1 °F 29.3 °F 25.0 °F 67% 30.05 in 10.0 mi West 6.9 mph - N/A   Clear
11:53 PM 32.0 °F 27.5 °F 25.0 °F 75% 30.07 in 10.0 mi WNW 4.6 mph - N/A   Clear